| time (UTC) | temp F | wind direction | speed MPH | gust MPH | rain 1hr in | rain 24hr in | rain mn in | humidity % | barometer mb |
| 20260504110546 | 70 | 90 | 0.0 | 0.0 | 0.00 | 5.34 | 0.06 | 79 | 1014.1 |
| 20260504100530 | 69 | 90 | 0.0 | 0.0 | 0.00 | 5.34 | 0.06 | 80 | 1014.3 |
| 20260504100302 | 69 | 90 | 0.0 | 0.0 | 0.01 | 5.34 | 0.06 | 79 | 1014.4 |
| 20260504081742 | 68 | 90 | 0.0 | 0.0 | 0.01 | 5.33 | 0.05 | 76 | 1014.9 |
| 20260504081013 | 68 | 90 | 0.0 | 0.0 | 0.01 | 5.33 | 0.05 | 76 | 1015.0 |
| 20260504080513 | 68 | 90 | 0.0 | 0.0 | 0.01 | 5.33 | 0.05 | 75 | 1015.2 |
| 20260504050529 | 68 | 90 | 0.0 | 0.0 | 0.01 | 5.28 | 0.00 | 75 | 1017.6 |
| 20260504045754 | 68 | 90 | 0.0 | 0.0 | 0.01 | 5.28 | 5.48 | 75 | 1017.7 |
| 20260504045518 | 68 | 90 | 0.0 | 0.0 | 0.01 | 5.28 | 5.48 | 75 | 1017.8 |
| 20260504045015 | 68 | 90 | 0.0 | 0.0 | 0.01 | 5.28 | 5.48 | 75 | 1017.7 |
| 20260504044506 | 68 | 90 | 0.0 | 0.0 | 0.01 | 5.28 | 5.48 | 75 | 1017.7 |
| 20260504043729 | 68 | 90 | 0.0 | 0.0 | 0.01 | 5.28 | 5.48 | 75 | 1017.9 |
| 20260504043224 | 68 | 90 | 0.0 | 0.0 | 0.01 | 5.28 | 5.48 | 75 | 1017.8 |
| 20260504042717 | 68 | 90 | 0.0 | 0.0 | 0.01 | 5.28 | 5.48 | 75 | 1017.9 |
| 20260504042211 | 68 | 90 | 0.0 | 0.0 | 0.01 | 5.28 | 5.48 | 75 | 1017.9 |
| 20260504041705 | 68 | 90 | 0.0 | 0.0 | 0.01 | 5.28 | 5.48 | 74 | 1017.8 |
| 20260504041200 | 68 | 90 | 0.0 | 0.0 | 0.00 | 5.27 | 5.47 | 74 | 1017.8 |
| 20260504040653 | 68 | 90 | 0.0 | 0.0 | 0.00 | 5.27 | 5.47 | 74 | 1017.8 |
| 20260504040148 | 68 | 90 | 0.0 | 0.0 | 0.00 | 5.27 | 5.47 | 74 | 1017.9 |
| 20260504035641 | 68 | 90 | 0.0 | 0.0 | 0.00 | 5.27 | 5.47 | 74 | 1017.8 |
| 20260504035136 | 68 | 90 | 0.0 | 0.0 | 0.00 | 5.27 | 5.47 | 74 | 1017.7 |
| 20260504034629 | 68 | 90 | 0.0 | 0.0 | 0.00 | 5.27 | 5.47 | 74 | 1017.8 |
| 20260504034124 | 68 | 90 | 0.0 | 0.0 | 0.00 | 5.27 | 5.47 | 74 | 1017.9 |
| 20260504033848 | 68 | 90 | 0.0 | 0.0 | 0.00 | 5.27 | 5.47 | 74 | 1017.9 |
| 20260504033112 | 68 | 90 | 0.0 | 0.0 | 0.00 | 5.27 | 5.47 | 74 | 1017.8 |
| 20260504032605 | 68 | 90 | 0.0 | 0.0 | 0.00 | 5.27 | 5.47 | 74 | 1017.8 |
| 20260504032059 | 68 | 90 | 0.0 | 0.0 | 0.00 | 5.27 | 5.47 | 74 | 1017.8 |
| 20260504031555 | 69 | 90 | 0.0 | 0.0 | 0.02 | 5.27 | 5.47 | 73 | 1017.8 |
| 20260504031048 | 69 | 90 | 0.0 | 0.0 | 0.02 | 5.27 | 5.47 | 73 | 1017.8 |
| 20260504030542 | 69 | 90 | 0.0 | 0.0 | 0.02 | 5.27 | 5.47 | 73 | 1017.6 |
| 20260504030035 | 69 | 90 | 0.0 | 0.0 | 0.03 | 5.27 | 5.47 | 73 | 1017.5 |
| 20260504025529 | 69 | 90 | 0.0 | 0.0 | 0.03 | 5.27 | 5.47 | 73 | 1017.5 |
| 20260504025023 | 69 | 90 | 0.0 | 0.0 | 0.03 | 5.27 | 5.47 | 73 | 1017.5 |
| 20260504024520 | 69 | 90 | 0.0 | 0.0 | 0.04 | 5.27 | 5.47 | 73 | 1017.5 |
| 20260504024014 | 69 | 90 | 0.0 | 0.0 | 0.04 | 5.27 | 5.47 | 74 | 1017.5 |
| 20260504023514 | 69 | 90 | 0.0 | 0.0 | 0.04 | 5.27 | 5.47 | 74 | 1017.4 |
| 20260504023014 | 69 | 90 | 0.0 | 0.0 | 0.06 | 5.27 | 5.47 | 73 | 1017.4 |
| 20260504022514 | 69 | 90 | 0.0 | 0.0 | 0.07 | 5.27 | 5.47 | 73 | 1017.4 |
| 20260504022013 | 69 | 90 | 0.0 | 0.0 | 0.09 | 5.27 | 5.47 | 72 | 1017.4 |
| 20260504021514 | 69 | 90 | 0.0 | 0.0 | 0.08 | 5.25 | 5.45 | 73 | 1017.4 |
| 20260504021012 | 69 | 90 | 0.0 | 0.0 | 0.09 | 5.25 | 5.45 | 72 | 1017.5 |
| 20260504020515 | 69 | 90 | 0.0 | 0.0 | 0.10 | 5.24 | 5.45 | 73 | 1017.4 |
| 20260504020012 | 69 | 90 | 0.0 | 0.0 | 0.11 | 5.24 | 5.44 | 73 | 1017.4 |
| 20260504015512 | 69 | 90 | 0.0 | 0.0 | 0.11 | 5.24 | 5.44 | 72 | 1017.4 |
| 20260504015011 | 70 | 90 | 0.0 | 0.0 | 0.12 | 5.24 | 5.44 | 72 | 1017.4 |
| 20260504014510 | 70 | 90 | 0.0 | 0.0 | 0.11 | 5.23 | 5.43 | 72 | 1017.3 |
| 20260504014012 | 70 | 90 | 0.0 | 0.0 | 0.12 | 5.23 | 5.43 | 71 | 1017.3 |
| 20260504013511 | 70 | 90 | 0.0 | 0.0 | 0.19 | 5.23 | 5.43 | 71 | 1017.3 |
| 20260504013009 | 70 | 90 | 0.0 | 0.0 | 0.21 | 5.21 | 5.41 | 70 | 1017.3 |
| 20260504012508 | 70 | 90 | 0.0 | 0.0 | 0.24 | 5.20 | 5.40 | 70 | 1017.4 |
| 20260504012008 | 71 | 90 | 0.0 | 0.0 | 0.26 | 5.18 | 5.38 | 70 | 1017.2 |
| 20260504011508 | 71 | 90 | 0.0 | 0.0 | 0.29 | 5.17 | 5.37 | 69 | 1017.4 |
| 20260504011021 | 71 | 90 | 0.0 | 0.0 | 0.31 | 5.16 | 5.36 | 68 | 1017.3 |
| 20260504010508 | 71 | 90 | 0.0 | 0.0 | 0.30 | 5.14 | 5.34 | 68 | 1017.4 |
| 20260504010010 | 71 | 90 | 0.0 | 0.0 | 0.31 | 5.13 | 5.33 | 67 | 1017.4 |
| 20260504005509 | 71 | 90 | 0.0 | 0.0 | 0.39 | 5.13 | 5.33 | 67 | 1017.4 |
| 20260504005010 | 72 | 90 | 0.0 | 0.0 | 0.40 | 5.12 | 5.32 | 67 | 1017.4 |
| 20260504004506 | 72 | 90 | 0.0 | 0.0 | 0.44 | 5.12 | 5.32 | 66 | 1017.4 |
| 20260504004004 | 72 | 90 | 0.0 | 0.0 | 0.48 | 5.11 | 5.32 | 66 | 1017.5 |
| 20260504003507 | 72 | 90 | 0.0 | 0.0 | 0.48 | 5.04 | 5.28 | 64 | 1017.5 |
| 20260504003005 | 72 | 90 | 0.0 | 0.0 | 0.44 | 5.00 | 5.20 | 63 | 1017.4 |
| 20260504002505 | 73 | 90 | 0.0 | 0.0 | 0.41 | 4.96 | 5.16 | 64 | 1017.5 |
| 20260504002005 | 73 | 90 | 0.0 | 0.0 | 0.53 | 4.92 | 5.12 | 63 | 1017.4 |
| 20260504001505 | 73 | 90 | 0.0 | 0.0 | 0.52 | 4.88 | 5.08 | 63 | 1017.3 |
| 20260504001005 | 73 | 90 | 0.0 | 0.0 | 0.49 | 4.85 | 5.05 | 62 | 1017.5 |
| 20260504000736 | 73 | 90 | 0.0 | 0.0 | 0.50 | 4.82 | 5.02 | 62 | 1017.6 |
| 20260504000241 | 74 | 90 | 0.0 | 0.0 | 0.52 | 4.82 | 5.02 | 61 | 1017.6 |
| 20260503235505 | 74 | 90 | 0.0 | 0.0 | 0.55 | 4.74 | 4.95 | 62 | 1017.5 |
| 20260503235009 | 74 | 90 | 0.0 | 0.0 | 0.56 | 4.72 | 4.92 | 62 | 1017.6 |
| 20260503234736 | 74 | 90 | 0.0 | 0.0 | 0.54 | 4.68 | 4.89 | 61 | 1017.5 |
| 20260503234004 | 74 | 90 | 0.0 | 0.0 | 0.52 | 4.63 | 4.84 | 61 | 1017.5 |
| 20260503233501 | 74 | 90 | 0.0 | 0.0 | 0.53 | 4.56 | 4.76 | 61 | 1017.5 |
| 20260503232959 | 75 | 90 | 0.0 | 0.0 | 0.56 | 4.56 | 4.76 | 59 | 1017.5 |
| 20260503232456 | 75 | 90 | 0.0 | 0.0 | 0.72 | 4.52 | 4.74 | 60 | 1017.6 |
| 20260503231958 | 75 | 90 | 0.0 | 0.0 | 0.63 | 4.39 | 4.59 | 61 | 1017.6 |
| 20260503231455 | 75 | 90 | 0.0 | 0.0 | 0.64 | 4.36 | 4.56 | 62 | 1017.8 |
| 20260503230952 | 75 | 90 | 0.0 | 0.0 | 0.64 | 4.34 | 4.56 | 60 | 1017.8 |
| 20260503230453 | 75 | 90 | 0.0 | 0.0 | 0.68 | 4.32 | 4.52 | 59 | 1017.8 |
| 20260503225950 | 75 | 90 | 0.0 | 0.0 | 0.72 | 4.30 | 4.50 | 58 | 1017.8 |
| 20260503225450 | 75 | 90 | 0.0 | 0.0 | 0.63 | 4.18 | 4.38 | 60 | 1017.8 |
| 20260503224944 | 75 | 90 | 0.0 | 0.0 | 0.63 | 4.16 | 4.36 | 59 | 1017.8 |
| 20260503224439 | 75 | 90 | 0.0 | 0.0 | 0.66 | 4.14 | 4.34 | 59 | 1017.9 |
| 20260503223933 | 76 | 90 | 0.0 | 0.0 | 0.64 | 4.11 | 4.31 | 57 | 1017.9 |
| 20260503223426 | 76 | 90 | 0.0 | 0.0 | 0.69 | 4.03 | 4.23 | 58 | 1018.0 |
| 20260503223152 | 76 | 90 | 0.0 | 0.0 | 0.66 | 3.98 | 4.20 | 57 | 1018.0 |
| 20260503222645 | 76 | 90 | 0.0 | 0.0 | 0.56 | 3.80 | 4.00 | 58 | 1018.0 |
| 20260503221909 | 76 | 90 | 0.0 | 0.0 | 0.58 | 3.76 | 3.96 | 59 | 1018.0 |
| 20260503221403 | 76 | 90 | 0.0 | 0.0 | 0.55 | 3.72 | 3.92 | 59 | 1018.1 |
| 20260503220352 | 76 | 90 | 0.0 | 0.0 | 0.53 | 3.63 | 3.83 | 59 | 1018.4 |
| 20260503220116 | 76 | 90 | 0.0 | 0.0 | 0.52 | 3.58 | 3.78 | 58 | 1018.4 |
| 20260503215339 | 76 | 90 | 0.0 | 0.0 | 0.54 | 3.55 | 3.75 | 58 | 1018.5 |
| 20260503215103 | 76 | 90 | 0.0 | 0.0 | 0.53 | 3.53 | 3.73 | 58 | 1018.5 |
| 20260503214327 | 76 | 90 | 0.0 | 0.0 | 0.50 | 3.48 | 3.68 | 60 | 1018.6 |
| 20260503214052 | 76 | 90 | 0.0 | 0.0 | 0.51 | 3.47 | 3.67 | 60 | 1018.5 |
| 20260503213314 | 76 | 90 | 0.0 | 0.0 | 0.40 | 3.33 | 3.54 | 60 | 1018.6 |
| 20260503212809 | 76 | 90 | 0.0 | 0.0 | 0.39 | 3.27 | 3.47 | 59 | 1018.8 |
| 20260503212304 | 77 | 90 | 0.0 | 0.0 | 0.44 | 3.24 | 3.44 | 59 | 1018.9 |
| 20260503211757 | 77 | 90 | 0.0 | 0.0 | 0.43 | 3.17 | 3.38 | 58 | 1018.9 |
| 20260503211251 | 77 | 90 | 0.0 | 0.0 | 0.49 | 3.16 | 3.37 | 59 | 1019.0 |
| 20260503210745 | 78 | 90 | 0.0 | 0.0 | 0.48 | 3.13 | 3.33 | 59 | 1019.1 |
| 20260503210238 | 78 | 90 | 0.0 | 0.0 | 0.63 | 3.10 | 3.30 | 58 | 1019.1 |
| 20260503205733 | 78 | 90 | 0.0 | 0.0 | 0.62 | 3.05 | 3.26 | 57 | 1019.2 |
| 20260503205226 | 79 | 90 | 0.0 | 0.0 | 0.65 | 3.01 | 3.21 | 55 | 1019.2 |
| 20260503204721 | 79 | 90 | 0.0 | 0.0 | 0.65 | 2.99 | 3.20 | 56 | 1019.3 |
| 20260503204214 | 80 | 90 | 0.0 | 0.0 | 0.65 | 2.96 | 3.16 | 57 | 1019.4 |
| 20260503203709 | 80 | 90 | 0.0 | 0.0 | 0.70 | 2.96 | 3.16 | 56 | 1019.5 |
| 20260503203202 | 80 | 90 | 0.0 | 0.0 | 0.74 | 2.92 | 3.12 | 55 | 1019.5 |
| 20260503202927 | 80 | 90 | 0.0 | 0.0 | 0.70 | 2.85 | 3.05 | 58 | 1019.6 |
| 20260503202150 | 80 | 90 | 0.0 | 0.0 | 0.73 | 2.77 | 2.97 | 57 | 1019.5 |
| 20260503201645 | 80 | 90 | 0.0 | 0.0 | 0.77 | 2.72 | 2.94 | 56 | 1019.6 |
| 20260503201138 | 81 | 90 | 0.0 | 0.0 | 0.87 | 2.67 | 2.87 | 55 | 1019.8 |
| 20260503200633 | 82 | 90 | 0.0 | 0.0 | 0.98 | 2.59 | 2.82 | 55 | 1019.7 |
| 20260503200139 | 82 | 90 | 0.0 | 0.0 | 0.99 | 2.47 | 2.67 | 54 | 1019.8 |
| 20260503195621 | 82 | 90 | 0.0 | 0.0 | 0.95 | 2.37 | 2.57 | 52 | 1020.0 |
| 20260503195115 | 82 | 90 | 0.0 | 0.0 | 1.02 | 2.36 | 2.56 | 52 | 1020.0 |
| 20260503194609 | 83 | 90 | 0.0 | 0.0 | 1.01 | 2.33 | 2.54 | 51 | 1020.1 |
| 20260503194103 | 83 | 90 | 0.0 | 0.0 | 1.05 | 2.30 | 2.50 | 50 | 1020.1 |
| 20260503193556 | 83 | 90 | 0.0 | 0.0 | 1.10 | 2.26 | 2.46 | 51 | 1020.1 |
| 20260503193051 | 83 | 90 | 0.0 | 0.0 | 1.05 | 2.18 | 2.38 | 50 | 1020.3 |
| 20260503192545 | 83 | 90 | 0.0 | 0.0 | 0.99 | 2.11 | 2.33 | 47 | 1020.3 |
| 20260503192038 | 84 | 90 | 0.0 | 0.0 | 0.91 | 2.02 | 2.22 | 49 | 1020.2 |
| 20260503191804 | 84 | 90 | 0.0 | 0.0 | 0.87 | 1.91 | 2.14 | 50 | 1020.2 |
| 20260503191026 | 84 | 90 | 0.0 | 0.0 | 0.79 | 1.75 | 2.00 | 48 | 1020.4 |
| 20260503190522 | 84 | 90 | 0.0 | 0.0 | 0.69 | 1.59 | 1.79 | 47 | 1020.5 |
| 20260503190017 | 84 | 90 | 0.0 | 0.0 | 0.61 | 1.48 | 1.68 | 47 | 1020.5 |
| 20260503185509 | 84 | 90 | 0.0 | 0.0 | 0.53 | 1.40 | 1.61 | 48 | 1020.6 |
| 20260503185003 | 84 | 90 | 0.0 | 0.0 | 0.47 | 1.34 | 1.54 | 49 | 1020.6 |
| 20260503184456 | 84 | 90 | 0.0 | 0.0 | 0.46 | 1.29 | 1.52 | 47 | 1020.6 |
| 20260503183950 | 85 | 90 | 0.0 | 0.0 | 0.48 | 1.24 | 1.44 | 49 | 1020.7 |
| 20260503183451 | 85 | 90 | 0.0 | 0.0 | 0.56 | 1.14 | 1.34 | 50 | 1020.9 |
| 20260503182947 | 85 | 90 | 0.0 | 0.0 | 0.62 | 1.13 | 1.33 | 48 | 1021.0 |
| 20260503181945 | 84 | 90 | 0.0 | 0.0 | 0.68 | 1.11 | 1.31 | 49 | 1021.1 |
| 20260503181443 | 85 | 90 | 0.0 | 0.0 | 0.61 | 1.03 | 1.23 | 48 | 1021.2 |
| 20260503180940 | 85 | 90 | 0.0 | 0.0 | 0.56 | 0.96 | 1.16 | 49 | 1021.2 |
| 20260503180437 | 85 | 90 | 0.0 | 0.0 | 0.53 | 0.90 | 1.10 | 46 | 1021.3 |
| 20260503175938 | 85 | 90 | 0.0 | 0.0 | 0.56 | 0.87 | 1.07 | 45 | 1021.3 |
| 20260503175437 | 84 | 90 | 0.0 | 0.0 | 0.58 | 0.87 | 1.07 | 46 | 1021.4 |
| 20260503174936 | 84 | 90 | 0.0 | 0.0 | 0.61 | 0.87 | 1.07 | 45 | 1021.5 |
| 20260503174433 | 84 | 90 | 0.0 | 0.0 | 0.57 | 0.83 | 1.03 | 46 | 1021.5 |
| 20260503173934 | 84 | 90 | 0.0 | 0.0 | 0.49 | 0.75 | 0.95 | 46 | 1021.6 |
| 20260503173431 | 84 | 90 | 0.0 | 0.0 | 0.34 | 0.58 | 0.78 | 46 | 1021.7 |
| 20260503172932 | 84 | 90 | 0.0 | 0.0 | 0.30 | 0.51 | 0.71 | 42 | 1021.8 |
| 20260503172703 | 84 | 90 | 0.0 | 0.0 | 0.35 | 0.51 | 0.71 | 45 | 1021.9 |
| 20260503171929 | 83 | 90 | 0.0 | 0.0 | 0.36 | 0.43 | 0.63 | 48 | 1022.0 |
| 20260503171429 | 83 | 90 | 0.0 | 0.0 | 0.41 | 0.42 | 0.62 | 42 | 1022.0 |
| 20260503170931 | 83 | 90 | 0.0 | 0.0 | 0.40 | 0.40 | 0.60 | 44 | 1022.1 |
| 20260503170429 | 83 | 90 | 0.0 | 0.0 | 0.37 | 0.37 | 0.57 | 41 | 1022.1 |
| 20260503150744 | 79 | 90 | 0.0 | 0.0 | 0.03 | 1.06 | 0.03 | 58 | 1022.1 |
| 20260503150238 | 79 | 90 | 0.0 | 0.0 | 0.03 | 1.06 | 0.03 | 59 | 1022.1 |
| 20260503140126 | 72 | 90 | 0.0 | 0.0 | 0.00 | 1.03 | 0.00 | 74 | 1021.5 |
| 20260503131026 | 65 | 90 | 0.0 | 0.0 | 0.00 | 1.03 | 0.00 | 82 | 1021.5 |
| 20260503130750 | 64 | 90 | 0.0 | 0.0 | 0.00 | 1.03 | 0.00 | 83 | 1021.3 |